Tracking 17780 objects as of 29-July-2016
HD Live streaming from Space Station
objects crossing your sky now

SKYNET 5B

Track SKYNET 5B now!
SKYNET 5B is classified as:


NORAD ID: 32294
Int'l Code: 2007-056B
Perigee: 35,780.2 km
Apogee: 35,808.0 km
Inclination: 0.1 °
Period: 1,436.1 minutes
Semi major axis: 42165 km
RCS: 14.1589 m2 (large)
Launch date: November 14, 2007
Source: United Kingdom (UK)
Launch site: FRENCH GUIANA (FRGUI)

Star One C1 is a C-, Ku-, and X-band telecommunications, multimedia and broadband internet satellite that will serve South America
Your satellite tracking list
Your tracking list is empty





NASA's NSSDC Master Catalog

Two Line Element Set (TLE):
1 32294U 07056B   16210.15322810  .00000000  00000-0  10000-3 0  9994
2 32294   0.0674  17.2093 0003294 113.9846 255.3004  1.00270496 32004
Source of the keplerian elements: AFSPC

N2YO: 1039